When you browse on this site, cookies collect data to enhance your experience and personalize the content and advertising you see.
Visit our Privacy Policy to learn more. By continuing to use the site, you agree to this use of cookies and data.

Hourly Weather Stafford

Today, 16 July, Thursday

Time Temperature Precipitation Wind Pressure Humidity
00:00 +13°C° 0 mm 3 mps 755 mmHg 90%
01:00 +14°C° 0 mm 3 mps 755 mmHg 90%
02:00 +14°C° 0 mm 3 mps 755 mmHg 90%
03:00 +14°C° 0 mm 4 mps 755 mmHg 89%
04:00 +14°C° 0 mm 4 mps 755 mmHg 89%
05:00 +14°C° 0 mm 4 mps 755 mmHg 88%
06:00 +14°C° 0 mm 5 mps 756 mmHg 88%
07:00 +15°C° 0 mm 5 mps 756 mmHg 84%
08:00 +16°C° 0 mm 5 mps 756 mmHg 81%
09:00 +17°C° 0 mm 5 mps 756 mmHg 78%
10:00 +19°C° 0 mm 5 mps 756 mmHg 76%
11:00 +20°C° 0 mm 5 mps 757 mmHg 74%
12:00 +21°C° 0 mm 5 mps 757 mmHg 72%
13:00 +21°C° 0 mm 5 mps 756 mmHg 73%
14:00 +21°C° 0 mm 5 mps 756 mmHg 74%
15:00 +21°C° 0 mm 5 mps 756 mmHg 75%
16:00 +21°C° 0 mm 5 mps 756 mmHg 76%
17:00 +21°C° 0 mm 4 mps 756 mmHg 78%
18:00 +20°C° 0 mm 4 mps 756 mmHg 80%
19:00 +19°C° 0 mm 3 mps 757 mmHg 84%
20:00 +18°C° 0 mm 3 mps 757 mmHg 88%
21:00 +16°C° 0 mm 2 mps 757 mmHg 92%
22:00 +16°C° 0 mm 2 mps 757 mmHg 92%
23:00 +15°C° 0 mm 2 mps 757 mmHg 93%

Tomorrow, 17 July, Friday

Time Temperature Precipitation Wind Pressure Humidity
00:00 +15°C° 0 mm 2 mps 757 mmHg 94%
01:00 +15°C° 0 mm 2 mps 757 mmHg 95%
02:00 +14°C° 0 mm 2 mps 757 mmHg 95%
03:00 +14°C° 0 mm 2 mps 757 mmHg 96%
04:00 +14°C° 0 mm 2 mps 757 mmHg 94%
05:00 +15°C° 0 mm 2 mps 757 mmHg 93%
06:00 +16°C° 0 mm 3 mps 757 mmHg 92%
07:00 +17°C° 0 mm 3 mps 757 mmHg 87%
08:00 +18°C° 0 mm 4 mps 756 mmHg 82%
09:00 +19°C° 0 mm 4 mps 756 mmHg 78%
10:00 +20°C° 0 mm 4 mps 756 mmHg 76%
11:00 +20°C° 0 mm 4 mps 756 mmHg 74%
12:00 +21°C° 0 mm 4 mps 756 mmHg 72%
13:00 +21°C° 0 mm 4 mps 756 mmHg 72%
14:00 +21°C° 0 mm 4 mps 756 mmHg 72%
15:00 +21°C° 0 mm 4 mps 755 mmHg 71%
16:00 +21°C° 0 mm 4 mps 755 mmHg 73%
17:00 +20°C° 0 mm 4 mps 755 mmHg 74%
18:00 +20°C° 0 mm 3 mps 755 mmHg 76%
19:00 +19°C° 0 mm 3 mps 755 mmHg 80%
20:00 +17°C° 0 mm 3 mps 755 mmHg 85%
21:00 +16°C° 0 mm 3 mps 755 mmHg 89%
22:00 +16°C° 0 mm 3 mps 755 mmHg 89%
23:00 +16°C° 0 mm 3 mps 755 mmHg 89%

Day after tomorrow, 18 July, Saturday

Time Temperature Precipitation Wind Pressure Humidity
00:00 +16°C° 0 mm 3 mps 754 mmHg 89%
01:00 +16°C° 0.2 mm 3 mps 754 mmHg 90%
02:00 +16°C° 0.2 mm 3 mps 754 mmHg 91%
03:00 +16°C° 0.2 mm 3 mps 754 mmHg 91%
04:00 +16°C° 0.3 mm 3 mps 754 mmHg 92%
05:00 +15°C° 0.3 mm 4 mps 753 mmHg 93%
06:00 +15°C° 0.3 mm 4 mps 753 mmHg 93%
07:00 +15°C° 0.1 mm 4 mps 753 mmHg 93%
08:00 +17°C° 0.1 mm 4 mps 753 mmHg 92%
09:00 +17°C° 0.1 mm 4 mps 753 mmHg 91%
10:00 +18°C° 0.2 mm 4 mps 753 mmHg 89%
11:00 +18°C° 0.2 mm 4 mps 754 mmHg 86%
12:00 +19°C° 0.2 mm 4 mps 754 mmHg 84%
13:00 +19°C° 0 mm 3 mps 754 mmHg 80%
14:00 +19°C° 0 mm 3 mps 753 mmHg 77%
15:00 +20°C° 0 mm 3 mps 753 mmHg 74%
16:00 +19°C° 0 mm 3 mps 753 mmHg 75%
17:00 +18°C° 0 mm 4 mps 753 mmHg 75%
18:00 +17°C° 0 mm 4 mps 753 mmHg 75%
19:00 +15°C° 0 mm 4 mps 753 mmHg 75%
20:00 +14°C° 0 mm 3 mps 753 mmHg 74%
21:00 +12°C° 0 mm 3 mps 754 mmHg 73%
22:00 +13°C° 0 mm 2 mps 753 mmHg 76%
23:00 +12°C° 0 mm 2 mps 753 mmHg 78%

19 July, Sunday

Time Temperature Precipitation Wind Pressure Humidity
00:00 +10°C° 0 mm 2 mps 753 mmHg 80%
01:00 +10°C° 0 mm 2 mps 753 mmHg 82%
02:00 +10°C° 0 mm 2 mps 754 mmHg 84%
03:00 +11°C° 0 mm 1 mps 754 mmHg 86%
04:00 +10°C° 0 mm 2 mps 754 mmHg 86%
05:00 +10°C° 0 mm 2 mps 754 mmHg 87%
06:00 +12°C° 0 mm 2 mps 754 mmHg 87%
07:00 +12°C° 0 mm 3 mps 754 mmHg 81%
08:00 +14°C° 0 mm 4 mps 754 mmHg 76%
09:00 +15°C° 0 mm 4 mps 755 mmHg 70%
10:00 +15°C° 0 mm 4 mps 755 mmHg 67%
11:00 +17°C° 0 mm 4 mps 755 mmHg 63%
12:00 +16°C° 0 mm 5 mps 755 mmHg 60%
13:00 +16°C° 0 mm 5 mps 755 mmHg 59%
14:00 +17°C° 0 mm 5 mps 755 mmHg 58%
15:00 +17°C° 0 mm 5 mps 755 mmHg 58%
16:00 +16°C° 0 mm 5 mps 755 mmHg 60%
17:00 +15°C° 0 mm 5 mps 755 mmHg 63%
18:00 +15°C° 0 mm 5 mps 755 mmHg 66%
19:00 +13°C° 0 mm 4 mps 756 mmHg 71%
20:00 +12°C° 0 mm 3 mps 756 mmHg 76%
21:00 +10°C° 0 mm 3 mps 756 mmHg 81%
22:00 +10°C° 0 mm 3 mps 757 mmHg 83%
23:00 +9°C° 0 mm 2 mps 757 mmHg 86%

20 July, Monday

Time Temperature Precipitation Wind Pressure Humidity
00:00 +9°C° 0 mm 2 mps 757 mmHg 89%
01:00 +8°C° 0 mm 2 mps 757 mmHg 90%
02:00 +8°C° 0 mm 2 mps 757 mmHg 91%
03:00 +8°C° 0 mm 2 mps 757 mmHg 92%
04:00 +8°C° 0 mm 2 mps 757 mmHg 90%
05:00 +9°C° 0 mm 3 mps 757 mmHg 88%
06:00 +10°C° 0 mm 3 mps 757 mmHg 87%
07:00 +11°C° 0 mm 3 mps 757 mmHg 81%
08:00 +12°C° 0 mm 4 mps 757 mmHg 76%
09:00 +14°C° 0 mm 4 mps 758 mmHg 71%
10:00 +14°C° 0.1 mm 4 mps 757 mmHg 68%
11:00 +15°C° 0.1 mm 4 mps 757 mmHg 65%
12:00 +15°C° 0.1 mm 5 mps 757 mmHg 63%
13:00 +16°C° 0.1 mm 5 mps 757 mmHg 62%
14:00 +16°C° 0.1 mm 5 mps 757 mmHg 61%
15:00 +16°C° 0.1 mm 5 mps 757 mmHg 60%
16:00 +17°C° 0 mm 4 mps 757 mmHg 61%
17:00 +15°C° 0 mm 4 mps 757 mmHg 63%
18:00 +15°C° 0 mm 4 mps 757 mmHg 65%
19:00 +13°C° 0 mm 3 mps 758 mmHg 69%
20:00 +11°C° 0 mm 3 mps 758 mmHg 73%
21:00 +10°C° 0 mm 2 mps 758 mmHg 76%
22:00 +9°C° 0 mm 2 mps 758 mmHg 81%
23:00 +9°C° 0 mm 2 mps 758 mmHg 85%

21 July, Tuesday

Time Temperature Precipitation Wind Pressure Humidity
00:00 +8°C° 0 mm 2 mps 758 mmHg 90%
01:00 +8°C° 0 mm 2 mps 758 mmHg 91%
02:00 +8°C° 0 mm 2 mps 758 mmHg 92%
03:00 +8°C° 0 mm 2 mps 758 mmHg 93%
04:00 +8°C° 0 mm 3 mps 759 mmHg 90%
05:00 +9°C° 0 mm 3 mps 759 mmHg 88%
06:00 +10°C° 0 mm 3 mps 759 mmHg 86%
07:00 +11°C° 0 mm 4 mps 759 mmHg 80%
08:00 +13°C° 0 mm 4 mps 759 mmHg 74%
09:00 +14°C° 0 mm 4 mps 759 mmHg 69%
10:00 +15°C° 0 mm 4 mps 759 mmHg 66%
11:00 +17°C° 0 mm 4 mps 759 mmHg 63%
12:00 +18°C° 0 mm 4 mps 759 mmHg 61%
13:00 +18°C° 0 mm 4 mps 759 mmHg 60%
14:00 +18°C° 0 mm 4 mps 759 mmHg 59%
15:00 +18°C° 0 mm 4 mps 759 mmHg 58%
16:00 +18°C° 0 mm 4 mps 759 mmHg 60%
17:00 +17°C° 0 mm 4 mps 759 mmHg 62%
18:00 +17°C° 0 mm 3 mps 759 mmHg 65%
19:00 +14°C° 0 mm 3 mps 759 mmHg 69%
20:00 +12°C° 0 mm 3 mps 759 mmHg 73%
21:00 +10°C° 0 mm 3 mps 760 mmHg 77%
22:00 +9°C° 0 mm 2 mps 759 mmHg 80%
23:00 +9°C° 0 mm 2 mps 759 mmHg 82%
Show more